Regional Weather Roundup
Issued by NWS

Home | Current Version | Previous Version | Graphics & Text | Print | Product List | Glossary On
Versions: 1 2 3 4 5 6 7 8 9 10 11 12 13 14 15 16 17 18 19 20 21 22 23 24 25 26 27 28 29 30 31 32 33 34 35 36 37 38 39 40 41 42 43 44
000
ASUS45 KBOU 202207
RWRCO

WEATHER ROUNDUP FOR COLORADO
NATIONAL WEATHER SERVICE DENVER/BOULDER CO
400 PM MDT MON OCT 20 2014

NOTE: "FAIR" INDICATES FEW OR NO CLOUDS BELOW 12000 FEET WITH NO
SIGNIFICANT WEATHER AND/OR OBSTRUCTIONS TO VISIBILITY.

COZ001>005-013-030-031-202300-
...NORTHWEST COLORADO...

CITY           SKY/WX    TMP DP  RH WIND       PRES   REMARKS
CRAIG          MOSUNNY   68  37  32 W8        30.13S
HAYDEN         PTSUNNY   68  34  28 W6        30.15S
MEEKER         MOSUNNY   70  35  27 VRB6      30.13S
MOUNT WERNER   NOT AVBL
STEAMBOAT SPGS CLOUDY    64  36  34 S5        30.16S
WALDEN         PTSUNNY   59  28  31 S9        30.22R
$$

COZ006>008-011-202300-
...WEST CENTRAL VALLEYS...

CITY           SKY/WX    TMP DP  RH WIND       PRES   REMARKS
GRAND JUNCTION SUNNY     71  41  33 NW7       30.07F
MONTROSE       MOSUNNY   72  34  24 VRB5      30.12S
EAGLE          MOSUNNY   70  36  28 W8        30.16S
RIFLE          MOSUNNY   70  37  29 W5        30.10F
DELTA          MOSUNNY   78  34  20 CALM      30.07F
NUCLA          MOSUNNY   70  36  28 NE5       30.15F
$$

COZ017>023-064>068-202300-
...SOUTHWEST COLORADO...

CITY           SKY/WX    TMP DP  RH WIND       PRES   REMARKS
DURANGO        SUNNY     65  39  38 W5        30.17F
CORTEZ         SUNNY     69  39  33 SE10      30.12F
PAGOSA SPRINGS SUNNY     64  31  29 W5        30.23S
TELLURIDE      PTSUNNY   57  34  41 W17       30.30S
WOLF CREEK PAS CLOUDY    37  28  70 S6        30.46F
$$

COZ009-010-012-014-032>034-037-058>063-202300-
...CENTRAL COLORADO...

CITY           SKY/WX    TMP DP  RH WIND       PRES   REMARKS
ASPEN          PTSUNNY   61  34  36 NW13G18   30.20S
BUENA VISTA    PTSUNNY   65  31  27 SE15      30.23S
COPPER MTN     MOSUNNY   46  27  46 SW6       30.46S
BERTHOUD PASS  CLOUDY    37  36  93 MISG      30.49S
COTTONWOOD PAS PTSUNNY   59  30  33 SE6       30.34F
GUNNISON       MOSUNNY   63  30  29 SE8       30.23S
KREMMLING      PTSUNNY   72  23  16 SW7         N/A
LEADVILLE      CLOUDY    53  26  35 S8        30.32S
MONARCH PASS   CLOUDY    41  32  70 W14       30.56S
SALIDA         CLOUDY    69  30  23 S13G20    30.27S
SUNLIGHT       PTSUNNY   52  34  50 CALM      30.41S
WILKERSON PASS NOT AVBL
$$

COZ069>075-202300-
...SAN LUIS VALLEY/SANGRE DE CRISTO MOUNTAINS...

CITY           SKY/WX    TMP DP  RH WIND       PRES   REMARKS
ALAMOSA        MOSUNNY   66  28  24 S7        30.21F
LA VETA PASS   CLOUDY    52  32  46 N3        30.39S
SAGUACHE       MOSUNNY   64  32  29 S8        30.25S
$$

COZ035-036-038>040-202300-
...NORTHERN COLORADO FRONT RANGE...

CITY           SKY/WX    TMP DP  RH WIND       PRES   REMARKS
DENVER INTL AP MOSUNNY   76  34  21 S18       30.06F
DMNS CITY PARK   N/A     76  34  22 SE9G17    30.05S
AURORA         MOSUNNY   74  36  25 S17       30.08F
FRONT RANGE AP NOT AVBL
ERIE MUNI ARPT MOSUNNY   77  35  22 NW3       30.03F
BOULDER MUN AP MOSUNNY   73  39  29 N3        30.05F
CENTENNIAL     MOSUNNY   72  36  26 S20G28    30.09S
BROOMFIELD     MOSUNNY   77  36  22 N6        30.07F
FORT COLLINS   SUNNY     72  43  35 N6        30.06S
LONGMONT       SUNNY     78  41  26 N5        30.06S
$$

COZ041-046-047-076>085-087-088-202300-
...PIKES PEAK/PALMER DIVIDE AND SOUTHERN FOOTHILLS...

CITY           SKY/WX    TMP DP  RH WIND       PRES   REMARKS
COLO. SPRINGS  MOSUNNY   69  33  26 S17G25    30.18S
A. F. ACADEMY  SUNNY     66  32  27 SE21G28   30.18S
ELLICOTT       SUNNY     68  30  24 S17G24    30.17S
FALCON         SUNNY     65  31  27 S17G23    30.22S
FORT CARSON    SUNNY     69  36  28 S13G21    30.16S
LIMON          SUNNY     70  34  26 S15G23    30.14F
MONUMENT HILL  SUNNY     64  32  29 S22G28    30.19S
TRINIDAD       SUNNY     72  31  22 E14       30.15S
$$

COZ042>045-048>051-090-091-202300-
...NORTHEAST COLORADO...

CITY           SKY/WX    TMP DP  RH WIND       PRES   REMARKS
GREELEY ARPT   SUNNY     79  34  19 S10       30.03F
AKRON          SUNNY     76  32  20 S16       30.08S
BURLINGTON     SUNNY     74  37  26 S14       30.12S
WRAY           SUNNY     79  35  20 S17       30.07S
STERLING       SUNNY     82  36  18 S14G21    30.03S
HOLYOKE        SUNNY     79  34  19 S12G21    30.06S
FORT MORGAN    SUNNY     78  32  18 S14G21    30.06S
$$

COZ086-089-092>099-202300-
...SOUTHEAST COLORADO...

CITY           SKY/WX    TMP DP  RH WIND       PRES   REMARKS
PUEBLO         SUNNY     75  34  22 SE12      30.10S
LA JUNTA       SUNNY     76  40  27 S13       30.10F
LAMAR          SUNNY     75  45  34 SE9       30.08F
SPRINGFIELD      N/A     71  44  37 E10       30.13S
$$


USA.gov is the U.S. government's official web portal to all federal, state and local government web resources and services.